Bolingbrook's Clow International Airport

Jump to: basic info | weather | frequencies | runways | comments

Related pages: nearby airports | nearby navaids | notams | map

Basic information (top)

Codes: K1C5 1C5
Location: lon 41.695999, lat -88.129204, elev 670 ft / 204 m msl
Status: small_airport
Scheduled airline service: no
Links: Wikipedia Mobile

Weather (top)

Current conditions for Lewis University Airport 6nm (10km) SSE (rec'd 2014/10/01 19:55Z):

KLOT 011955Z AUTO 13010KT 10SM CLR 22/12 A2990

Airport forecast for Dupage Airport 14nm (26km) NNW (rec'd 2014/10/01 18:27Z):

TAF KDPA 011725Z 0118/0218 14011G15KT P6SM SCT250 
     FM020000 14008KT P6SM SCT150 BKN250 
     FM020500 16007KT P6SM VCSH SCT050 BKN120 
     FM020800 16006KT 6SM -SHRA BKN050 OVC120 
     FM021400 18009KT P6SM SCT015 BKN030 OVC120

Frequencies (top)

Verify before use: may be inaccurate or out of date.

A/D: 119.35 MHz (CHICAGO APP/DEP)
CTAF: 122.9 MHz (CTAF)

Runways (top)

18/36: 3,362 x 50 ft (1,025 x 15 m) — other (ASPH-G) — lighted — threshold 18 displaced 190 ft (58 m) — threshold 36 displaced 130 ft (40 m)

Latest comments (top)

1C5 - Clow International - First Starts: I started primary training here a long ... [read]

More... (top)

See also NOTAMs and nearby airports and navaids, or visit the Bolingbrook's Clow International Airport page at the main OurAirports website..